Location: Chapleau
(47.8423°N, 83.4026°W)
Time: 18:59:13
(UTC-05:00)

ISS - Visible Passes

Search period start: 18 November 2019 00:00
Search period end: 28 November 2019 00:00
Orbit: 412 x 421 km, 51.6° (Epoch: 19 November)

Date Brightness Start Highest point End Pass type
(mag) Time Alt. Az. Time Alt. Az. Time Alt. Az.
21 Nov -1.0 19:27:15 10° SW 19:27:48 14° SSW 19:27:48 14° SSW visible
22 Nov -2.2 18:39:20 10° SSW 18:41:38 24° SSE 18:41:38 24° SSE visible
23 Nov -1.7 17:51:46 10° S 17:53:53 16° SE 17:55:23 13° ESE visible
23 Nov -1.5 19:26:50 10° WSW 19:28:18 24° WSW 19:28:18 24° WSW visible
24 Nov -3.6 18:38:32 10° SW 18:41:49 54° SSE 18:41:58 53° SE visible
25 Nov -2.8 17:50:23 10° SSW 17:53:28 35° SE 17:55:34 17° E visible
25 Nov -1.6 19:26:48 10° W 19:28:28 26° W 19:28:28 26° W visible
26 Nov -3.9 18:38:16 10° WSW 18:41:38 78° NNW 18:42:00 66° NE visible
27 Nov -3.8 17:49:50 10° WSW 17:53:10 76° SSE 17:55:30 19° ENE visible
27 Nov -1.4 19:26:51 10° W 19:28:23 23° WNW 19:28:23 23° WNW visible
